Location: Newark
(36.1358°N, 115.1208°W)
Time: 21:33:31
(UTC+00:00)

Vanguard 1 Rocket - Pass Details

Date: 27 February 2020
Orbit: 650 x 4226 km, 34.3° (Epoch: 09 April)

Event Time Altitude Azimuth Distance (km) Brightness Sun altitude
Rises 03:56:28 0° 190° (S) 8,188 12.3 -29.8°
Reaches altitude 10° 04:07:25 10° 169° (S) 6,509 11.5 -31.9°
Enters shadow 04:12:10 13° 156° (SSE) 5,867 11.2 -32.8°
Maximum altitude 04:15:09 13° 146° (SE) 5,535 - -33.4°
Drops below altitude 10° 04:21:27 10° 122° (ESE) 5,166 - -34.7°
Sets 04:27:40 0° 98° (E) 5,416 - -35.9°
